Payson, AZ

5:40 PM MST on January 23, 2018 (GMT -0700)
Payson

Weather History for KPAN - October, 2012

Change the Weather History Date:

Wednesday, October 3, 2012

  Actual Average Record
Temperature  
Mean Temperature 70 °F -  
Max Temperature 84 °F 79 °F 84 °F (2012)
Min Temperature 57 °F 46 °F 46 °F (2016)
Cooling Degree Days 6    
Growing Degree Days 20 (Base 50)    
Moisture  
Dew Point 26 °F    
Average Humidity 20    
Maximum Humidity 31    
Minimum Humidity 11    
Precipitation  
Precipitation 0.00 in - - ()
Sea Level Pressure  
Sea Level Pressure 30.18 in    
Wind  
Wind Speed 4 mph (West)    
Max Wind Speed 17 mph    
Max Gust Speed 22 mph    
Visibility 10 miles    
Events      
Averages and records for this station are not official NWS values.
T = Trace of Precipitation, MM = Missing Value Source: NWS Daily Summary

Daily Weather History Graph

Daily Weather History Graph

Search for Another Location

Airport or City:

Trip Planner

Search our weather history database for the weather conditions in past years. The results will help you decide how hot, cold, wet, or windy it might be!

Date:

Astronomy

Oct. 03, 2012 Rise Set
Actual Time 6:21 AM MST 6:06 PM MST
Civil Twilight 5:56 AM MST 6:31 PM MST
Nautical Twilight 5:27 AM MST 7:00 PM MST
Astronomical Twilight 4:58 AM MST 7:29 PM MST
Moon 8:11 PM MST (10/3) 9:37 AM MST (10/3)
Length of Visible Light 12h 34m
Length of Day
11h 44m
Waning Gibbous, 88% of the Moon is Illuminated
Oct 3
Waning Gibbous
Oct 8
Last Quarter
Oct 15
New
Oct 21
First Quarter
Oct 29
Full

Hourly Weather History & Observations

Time (MST) Temp. Dew Point Humidity Pressure Visibility Wind Dir Wind Speed Gust Speed Precip Events Conditions
12:15 AM 62.6 °F 28.4 °F 27% 30.13 in 10.0 mi Calm Calm - N/A   Clear
12:35 AM 62.6 °F 28.4 °F 27% 30.13 in 10.0 mi Calm Calm - N/A   Clear
2:15 AM 59.0 °F 26.6 °F 29% 30.13 in 10.0 mi WNW 4.6 mph - N/A   Clear
2:35 AM 59.0 °F 26.6 °F 29% 30.13 in 10.0 mi WNW 3.5 mph - N/A   Clear
2:55 AM 60.8 °F 26.6 °F 27% 30.13 in 10.0 mi Calm Calm - N/A   Clear
3:15 AM 60.8 °F 26.6 °F 27% 30.13 in 10.0 mi WNW 4.6 mph - N/A   Clear
3:35 AM 57.2 °F 26.6 °F 31% 30.13 in 10.0 mi NW 3.5 mph - N/A   Clear
3:55 AM 57.2 °F 26.6 °F 31% 30.14 in 10.0 mi NW 4.6 mph - N/A   Clear
4:15 AM 57.2 °F 26.6 °F 31% 30.14 in 10.0 mi WNW 3.5 mph - N/A   Clear
4:55 AM 57.2 °F 26.6 °F 31% 30.14 in 10.0 mi NNW 3.5 mph - N/A   Clear
5:15 AM 57.2 °F 26.6 °F 31% 30.14 in 10.0 mi Calm Calm - N/A   Clear
5:55 AM 57.2 °F 26.6 °F 31% 30.15 in 10.0 mi Calm Calm - N/A   Clear
6:15 AM 57.2 °F 26.6 °F 31% 30.15 in 10.0 mi Calm Calm - N/A   Clear
6:35 AM 57.2 °F 26.6 °F 31% 30.15 in 10.0 mi Calm Calm - N/A   Clear
6:55 AM 59.0 °F 26.6 °F 29% 30.16 in 10.0 mi Calm Calm - N/A   Clear
7:15 AM 59.0 °F 26.6 °F 29% 30.16 in 10.0 mi Calm Calm - N/A   Clear
7:35 AM 62.6 °F 28.4 °F 27% 30.17 in 10.0 mi Calm Calm - N/A   Clear
7:55 AM 64.4 °F 28.4 °F 26% 30.18 in 10.0 mi Calm Calm - N/A   Clear
8:15 AM 66.2 °F 30.2 °F 26% 30.19 in 10.0 mi Calm Calm - N/A   Clear
8:35 AM 71.6 °F 30.2 °F 22% 30.20 in 10.0 mi Calm Calm - N/A   Clear
8:55 AM 73.4 °F 28.4 °F 19% 30.20 in 9.0 mi Calm Calm - N/A   Clear
9:15 AM 75.2 °F 26.6 °F 17% 30.21 in 10.0 mi Calm Calm - N/A   Clear
9:35 AM 77.0 °F 26.6 °F 16% 30.21 in 10.0 mi Calm Calm - N/A   Clear
9:55 AM 77.0 °F 26.6 °F 16% 30.21 in 10.0 mi SSW 4.6 mph - N/A   Clear
10:15 AM 78.8 °F 24.8 °F 14% 30.21 in 10.0 mi West 6.9 mph - N/A   Clear
10:35 AM 78.8 °F 24.8 °F 14% 30.21 in 10.0 mi West 9.2 mph - N/A   Clear
10:55 AM 80.6 °F 26.6 °F 14% 30.21 in 10.0 mi West 10.4 mph - N/A   Clear
11:15 AM 80.6 °F 23.0 °F 12% 30.20 in 10.0 mi WSW 10.4 mph - N/A   Clear
11:35 AM 80.6 °F 23.0 °F 12% 30.20 in 10.0 mi West 11.5 mph - N/A   Clear
11:55 AM 80.6 °F 24.8 °F 13% 30.20 in 9.0 mi West 10.4 mph - N/A   Clear
12:15 PM 82.4 °F 24.8 °F 12% 30.19 in 10.0 mi WSW 8.1 mph - N/A   Clear
12:35 PM 82.4 °F 24.8 °F 12% 30.19 in 10.0 mi West 15.0 mph - N/A   Clear
12:55 PM 84.2 °F 24.8 °F 11% 30.18 in 10.0 mi West 17.3 mph 21.9 mph N/A   Clear
1:15 PM 82.4 °F 23.0 °F 11% 30.17 in 10.0 mi West 16.1 mph 21.9 mph N/A   Partly Cloudy
1:35 PM 84.2 °F 23.0 °F 11% 30.17 in 10.0 mi West 12.7 mph 19.6 mph N/A   Clear
1:55 PM 82.4 °F 24.8 °F 12% 30.17 in 10.0 mi West 8.1 mph 17.3 mph N/A   Clear
2:15 PM 82.4 °F 26.6 °F 13% 30.16 in 10.0 mi West 11.5 mph 17.3 mph N/A   Clear
2:35 PM 84.2 °F 26.6 °F 12% 30.16 in 10.0 mi West 11.5 mph 18.4 mph N/A   Clear
2:55 PM 82.4 °F 26.6 °F 13% 30.16 in 10.0 mi West 13.8 mph 20.7 mph N/A   Clear
3:15 PM 82.4 °F 26.6 °F 13% 30.16 in 10.0 mi WSW 8.1 mph 20.7 mph N/A   Clear
3:35 PM 82.4 °F 24.8 °F 12% 30.16 in 10.0 mi SSW 9.2 mph 19.6 mph N/A   Clear
3:55 PM 82.4 °F 24.8 °F 12% 30.16 in 10.0 mi WSW 6.9 mph 17.3 mph N/A   Clear
4:15 PM 82.4 °F 23.0 °F 11% 30.16 in 10.0 mi West 9.2 mph - N/A   Clear
4:35 PM 82.4 °F 23.0 °F 11% 30.16 in 10.0 mi WSW 6.9 mph - N/A   Clear
4:55 PM 82.4 °F 23.0 °F 11% 30.16 in 10.0 mi WSW 10.4 mph - N/A   Partly Cloudy
5:15 PM 80.6 °F 23.0 °F 12% 30.17 in 10.0 mi SW 9.2 mph - N/A   Clear
5:35 PM 78.8 °F 23.0 °F 13% 30.17 in 10.0 mi WSW 8.1 mph - N/A   Clear
5:55 PM 78.8 °F 24.8 °F 14% 30.17 in 10.0 mi WSW 6.9 mph - N/A   Clear
6:15 PM 77.0 °F 26.6 °F 16% 30.17 in 10.0 mi SW 6.9 mph - N/A   Clear
6:35 PM 75.2 °F 26.6 °F 17% 30.17 in 10.0 mi WSW 8.1 mph - N/A   Clear
6:55 PM 75.2 °F 26.6 °F 17% 30.17 in 10.0 mi WSW 6.9 mph - N/A   Clear
7:15 PM 71.6 °F 28.4 °F 20% 30.18 in 10.0 mi West 5.8 mph - N/A   Clear
7:35 PM 69.8 °F 28.4 °F 21% 30.19 in 10.0 mi West 3.5 mph - N/A   Clear
7:55 PM 69.8 °F 28.4 °F 21% 30.19 in 10.0 mi West 5.8 mph - N/A   Clear
8:15 PM 68.0 °F 28.4 °F 23% 30.19 in 10.0 mi South 4.6 mph - N/A   Clear
8:35 PM 71.6 °F 28.4 °F 20% 30.20 in 10.0 mi SW 3.5 mph - N/A   Clear
8:55 PM 71.6 °F 26.6 °F 19% 30.21 in 10.0 mi South 3.5 mph - N/A   Clear
9:15 PM 71.6 °F 26.6 °F 19% 30.21 in 10.0 mi Calm Calm - N/A   Clear
9:55 PM 66.2 °F 28.4 °F 24% 30.22 in 10.0 mi Calm Calm - N/A   Clear
10:15 PM 68.0 °F 26.6 °F 21% 30.22 in 10.0 mi Calm Calm - N/A   Clear
10:35 PM 64.4 °F 28.4 °F 26% 30.23 in 10.0 mi NW 3.5 mph - N/A   Clear
10:55 PM 62.6 °F 28.4 °F 27% 30.22 in 10.0 mi Calm Calm - N/A   Clear
11:15 PM 62.6 °F 28.4 °F 27% 30.22 in 10.0 mi Calm Calm - N/A   Clear
11:35 PM 62.6 °F 28.4 °F 27% 30.22 in 10.0 mi Calm Calm - N/A   Clear
11:55 PM 60.8 °F 28.4 °F 29% 30.22 in 10.0 mi Calm Calm - N/A   Clear